Tracking 33744 objects as of 12-Apr-2026
HD Live streaming from Space Station
objects crossing your sky now

STARLINK-36956

Track STARLINK-36956 now!
10-day predictions
STARLINK-36956 is classified as:


NORAD ID: 68009
Int'l Code: 2026-039Z
Perigee: 489.1 km
Apogee: 491.2 km
Inclination: 43.0 °
Period: 94.3 minutes
Semi major axis: 6861 km
RCS: Unknown
Launch date: February 27, 2026
Source: United States (US)
Launch site: AIR FORCE WESTERN TEST RANGE (AFWTR)
Your satellite tracking list
Your tracking list is empty




NASA's NSSDC Master Catalog

Two Line Element Set (TLE):
1 68009U 26039Z   26102.36213343  .00011319  00000-0  42014-3 0  9998
2 68009  42.9995 218.7159 0001509 269.4175  90.6503 15.27584375  6854
Source of the keplerian elements: AFSPC